Location: Marcé
(47.5801°N, 0.3280°W)
Time: 05:59:58
(UTC+01:00)

Envisat - Pass Details

Date: 25 October 2021
Orbit: 764 x 766 km, 98.2° (Epoch: 04 December)

Event Time Altitude Azimuth Distance (km) Brightness Sun altitude
Rises 05:41:08 0° 31° (NNE) 3,243 6.9 -29.7°
Reaches altitude 10° 05:44:46 10° 58° (ENE) 2,310 6.3 -29.1°
Maximum altitude 05:47:11 13° 87° (E) 2,077 6.1 -28.7°
Drops below altitude 10° 05:49:37 10° 116° (ESE) 2,301 6.1 -28.3°
Sets 05:53:11 0° 142° (SE) 3,219 6.5 -27.8°
